Regional Weather Roundup
Issued by NWS Burlington, VT

Home | Current Version | Previous Version | Text Only | Print | Product List | Glossary On
Versions: 1 2 3 4 5 6 7 8 9 10 11 12 13 14 15 16 17 18 19 20 21 22 23 24 25 26 27 28 29 30 31 32 33 34 35 36 37 38 39 40 41 42 43 44 45 46 47 48 49 50
000
ASUS41 KBTV 010910
RWRBTV
VERMONT REGIONAL WEATHER ROUNDUP
NATIONAL WEATHER SERVICE BURLINGTON VT
500 AM EDT SAT AUG 01 2015

NOTE: "FAIR" INDICATES FEW OR NO CLOUDS BELOW 12,000 FEET WITH NO
SIGNIFICANT WEATHER AND/OR OBSTRUCTIONS TO VISIBILITY.

* THESE REPORTS ARE NOT UNDER NWS QUALITY CONTROL AND/OR DO NOT
  REPORT WEATHER SUCH AS PRECIPITATION AND FOG.

VTZ001>019-011000-
_____VERMONT_____


CITY           SKY/WX    TMP DP  RH WIND       PRES   REMARKS
BURLINGTON     PTCLDY    68  58  70 S6        29.70S
MONTPELIER     PTCLDY    61  58  90 CALM      29.76S
MORRISVILLE    MOCLDY    60  56  86 CALM      29.73F
ST. JOHNSBURY*   N/A     59  55  87 MISG      29.72S
LYNDONVILLE*   FAIR      57  56  95 CALM      29.75S
MIDDLEBURY*    FAIR      64  63  96 S3        29.74R
SPRINGFIELD    CLEAR     56  55  97 CALM      29.76F
HIGHGATE*      FAIR      65  59  80 S5        29.69S
NEWPORT*       FAIR      60  57  90 S5        29.73R
BENNINGTON     PTCLDY    57  55  93 CALM      29.76F
SUTTON*          N/A     59 N/A N/A MISG        N/A

_____LAKE CHAMPLAIN_____


CITY           SKY/WX    TMP DP  RH WIND       PRES   REMARKS

$$

NYZ007-026>031-035-052-083-011000-
_____NORTHERN NEW YORK_____


CITY           SKY/WX    TMP DP  RH WIND       PRES   REMARKS
PLATTSBURGH    MOCLDY    66  58  75 CALM      29.69S
SARANAC LAKE   LGT RAIN  61  59  93 SW8       29.76S
MASSENA        MOCLDY    65  60  84 SW10      29.71S
OGDENSBURG*    CLEAR     64  63  94 SW5       29.71S
POTSDAM*       PTCLDY    64  64 100 SW8       29.72S
WATERTOWN      CLOUDY    62  61  96 SW5       29.74S
FT DRUM        CLOUDY    63  62  96 SW6       29.74S
ALBANY         MOCLDY    67  60  78 CALM      29.75S
GLENS FALLS    LGT RAIN  64  60  87 CALM      29.74S

$$
NHZ002-005-011-011000-
_____NEW HAMPSHIRE_____


CITY           SKY/WX    TMP DP  RH WIND       PRES   REMARKS
LEBANON        PTCLDY    58  56  93 CALM      29.74F
KEENE          CLEAR     57  52  82 CALM      29.78R
MT WASHINGTON  FOG       46  46 100 W35         N/A  VSB 1/8
PLYMOUTH       FOG       57  57 100 CALM      29.76R VSB 1/2
WHITEFIELD     CLOUDY    55  53  93 CALM      29.74F

$$

_____REGIONAL QUEBEC LOCATIONS_____


CITY           SKY/WX    TMP DP  RH WIND       PRES   REMARKS
MONTREAL       MOCLDY    66  61  82 SW10      29.68R
QUEBEC CITY    PTCLDY    59  59 100 CALM      29.66S
SHERBROOKE     CLEAR     61  57  88 SW3       29.70R

_____REGIONAL ONTARIO LOCATIONS_____


CITY           SKY/WX    TMP DP  RH WIND       PRES   REMARKS
OTTAWA         PTCLDY    57  57 100 W6        29.71R

______KEY______
VSB  - VISIBILITY IN MILES
WCI  - WIND CHILL INDEX
HX   - HEAT INDEX
$$
NNNN


USA.gov is the U.S. government's official web portal to all federal, state and local government web resources and services.